Burlington, CO

5:34 PM MDT on June 22, 2017 (GMT -0600)
Kit Carson County

Weather History for KITR - September, 2013

Change the Weather History Date:

Monday, September 30, 2013

  Actual Average Record
Temperature  
Mean Temperature 64 °F 57 °F  
Max Temperature 84 °F 72 °F 95 °F (1994)
Min Temperature 43 °F 42 °F 20 °F (1985)
Degree Days  
Heating Degree Days 2    
Growing Degree Days 12 (Base 50)    
Moisture  
Dew Point 39 °F    
Average Humidity 49    
Maximum Humidity 82    
Minimum Humidity 16    
Precipitation  
Precipitation 0.00 in 0.04 in 0.90 in (1945)
Month to date precipitation 5.45 1.14  
Year to date precipitation 15.90 15.29  
Sea Level Pressure  
Sea Level Pressure 29.74 in    
Wind  
Wind Speed 8 mph (South)    
Max Wind Speed 14 mph    
Max Gust Speed 22 mph    
Visibility 10 miles    
Events      
T = Trace of Precipitation, MM = Missing Value Source: NWS Daily Summary

Daily Weather History Graph

Daily Weather History Graph

Search for Another Location

Airport or City:

Trip Planner

Search our weather history database for the weather conditions in past years. The results will help you decide how hot, cold, wet, or windy it might be!

Date:

Astronomy

Sep. 30, 2013 Rise Set
Actual Time 6:44 AM MDT 6:32 PM MDT
Civil Twilight 6:17 AM MDT 6:59 PM MDT
Nautical Twilight 5:46 AM MDT 7:30 PM MDT
Astronomical Twilight 5:15 AM MDT 8:01 PM MDT
Moon 2:24 AM MDT (9/30) 4:03 PM MDT (9/30)
Length of Visible Light 12h 41m
Length of Day
11h 48m
Waning Crescent, 18% of the Moon is Illuminated
Sep 30
Waning Crescent
Oct 4
New
Oct 11
First Quarter
Oct 18
Full
Oct 26
Last Quarter

Hourly Weather History & Observations

Time (MDT) Temp. Windchill Dew Point Humidity Pressure Visibility Wind Dir Wind Speed Gust Speed Precip Events Conditions
12:53 AM 48.0 °F - 41.0 °F 77% 29.79 in - SSW 4.6 mph - N/A   Clear
1:53 AM 46.9 °F - 41.0 °F 80% 29.79 in - SSW 5.8 mph - N/A   Clear
2:53 AM 46.9 °F - 41.0 °F 80% 29.78 in - West 8.1 mph - N/A   Clear
3:53 AM 46.9 °F - 41.0 °F 80% 29.76 in - WSW 6.9 mph - N/A   Clear
4:53 AM 44.1 °F 39.5 °F 39.0 °F 82% 29.77 in - WNW 8.1 mph - N/A   Clear
5:53 AM 45.0 °F 41.8 °F 37.9 °F 76% 29.78 in - NNE 5.8 mph - N/A   Clear
6:53 AM 43.0 °F 40.3 °F 37.9 °F 82% 29.83 in - West 4.6 mph - N/A   Clear
7:53 AM 53.1 °F - 41.0 °F 64% 29.81 in - WNW 4.6 mph - N/A   Clear
8:53 AM 66.0 °F - 42.1 °F 42% 29.79 in - NNW 4.6 mph - N/A   Clear
9:53 AM 73.9 °F - 39.0 °F 28% 29.76 in 10.0 mi East 11.5 mph - N/A   Clear
10:53 AM 78.1 °F - 37.0 °F 23% 29.75 in - ESE 11.5 mph - N/A   Clear
11:53 AM 79.0 °F - 37.0 °F 22% 29.73 in - SE 9.2 mph - N/A   Clear
12:53 PM 81.0 °F - 37.9 °F 21% 29.72 in - South 10.4 mph 21.9 mph N/A   Clear
1:53 PM 82.9 °F - 35.1 °F 18% 29.69 in 10.0 mi South 12.7 mph - N/A   Clear
2:53 PM 82.9 °F - 32.0 °F 16% 29.68 in 10.0 mi SSW 12.7 mph - N/A   Clear
3:53 PM 82.9 °F - 33.1 °F 17% 29.67 in 10.0 mi South 11.5 mph - N/A   Clear
4:53 PM 81.0 °F - 35.1 °F 19% 29.67 in 10.0 mi South 11.5 mph - N/A   Clear
5:53 PM 75.0 °F - 39.9 °F 28% 29.69 in 10.0 mi South 9.2 mph - N/A   Clear
6:53 PM 64.0 °F - 39.9 °F 41% 29.71 in 10.0 mi South 11.5 mph - N/A   Clear
7:53 PM 61.0 °F - 41.0 °F 48% 29.72 in 10.0 mi South 10.4 mph - N/A   Clear
8:53 PM 57.0 °F - 42.1 °F 57% 29.71 in 10.0 mi South 10.4 mph - N/A   Clear
9:53 PM 60.1 °F - 42.1 °F 51% 29.70 in 10.0 mi South 11.5 mph - N/A   Clear
10:53 PM 60.1 °F - 43.0 °F 53% 29.70 in 10.0 mi South 13.8 mph - N/A   Clear
11:53 PM 57.9 °F - 44.1 °F 60% 29.70 in 10.0 mi South 11.5 mph - N/A   Clear